Regional Weather Roundup
Issued by NWS

Home | Current Version | Previous Version | Text Only | Print | Product List | Glossary On
Versions: 1 2 3 4 5 6 7 8 9 10 11 12 13 14 15 16 17 18 19 20 21 22 23 24 25 26 27 28 29 30 31 32 33 34 35 36 37 38 39 40 41 42 43 44 45 46 47 48 49 50
000
ASUS44 KMEG 250410
RWRTN
TENNESSEE HOURLY STATE WEATHER ROUNDUP
NATIONAL WEATHER SERVICE MEMPHIS TN
1000 PM CST SAT FEB 24 2018

TNZ002-004-019-021-049-052-054-088>092-250500-
WEST TENNESSEE

CITY           SKY/WX    TMP DP  RH WIND       PRES   REMARKS
MEMPHIS INTL   LGT RAIN  55  54  96 S8        29.88F
NWS MEMPHIS      N/A     55 N/A N/A MISG        N/A
JACKSON        HVY RAIN  56  55  97 W12       29.88R FOG
DYERSBURG      LGT RAIN  58  53  84 SW10      29.84R
SOMERVILLE     CLOUDY    55  54  94 SW8G15    29.89R FOG
COVINGTON      CLOUDY    55  54  94 SW9       29.85F
UNION CITY     MOCLDY    59  54  82 SW13G22   29.80R
BOLIVAR        MOCLDY    55  54  94 SW7       29.89S
LEXINGTON      CLOUDY    55  54  94 SW10G18   29.88F FOG
SELMER         CLOUDY    55  54  94 W7G17     29.89R FOG
SAVANNAH       MOCLDY    63  59  88 NW10G26   29.89R
$$

TNZ008-025-027-028-033-062-065-066-250500-
NORTH MIDDLE TENNESSEE

CITY           SKY/WX    TMP DP  RH WIND       PRES   REMARKS
NASHVILLE      LGT RAIN  70  62  76 S21G29    29.85R
PORTLAND       MOCLDY    66  63  88 S28G38    29.77F FOG
CLARKSVILLE    LGT RAIN  63  56  78 SW16G22   29.81S
SMYRNA         LGT RAIN  70  62  76 S15G25    29.86R
COOKEVILLE     PTCLDY    68  59  73 S20       29.88S
GALLATIN       MOCLDY    70  63  78 S16G26    29.86R
CROSSVILLE     MOCLDY    64  57  78 S9G23     29.94F
$$

TNZ061-075-076-078-094-096-097-250500-
SOUTH MIDDLE TENNESSEE

CITY           SKY/WX    TMP DP  RH WIND       PRES   REMARKS
FAYETTEVILLE   CLOUDY    68  63  83 S18G28    29.92S
TULLAHOMA      MOCLDY    68  61  77 S10G17    29.92R
WINCHESTER     PTCLDY    66  61  82 S9        29.94S
MCMINNVILLE    PTCLDY    68  61  77 SW14G23   29.90S
COLUMBIA       CLOUDY    68  68 100 S23G32    29.85R FOG
SHELBYVILLE    MOCLDY    68  63  83 S21G30    29.89S
$$

TNZ017-018-042-046-047-250500-
NORTHEAST TENNESSEE

CITY           SKY/WX    TMP DP  RH WIND       PRES   REMARKS
TRI CITIES     CLOUDY    61  58  90 CALM      29.98F
ELIZABETHTON   CLOUDY    72  54  53 CALM      29.99F
$$

TNZ012-013-036-069-073-074-250500-
CENTRAL EAST TENNESSEE

CITY           SKY/WX    TMP DP  RH WIND       PRES   REMARKS
KNOXVILLE      MOCLDY    67  58  72 SW12      29.94F
OAK RIDGE      CLOUDY    64  62  93 CALM      29.95F
DOWNTOWN KNOXV CLOUDY    59  57  94 CALM      29.96F
GATLINBURG     MOCLDY    75  52  43 SW12      29.95S
JACKSBORO      CLOUDY    68  59  73 SW12G23   29.96F
$$

TNZ083-085-099-250500-
SOUTHEAST TENNESSEE

CITY           SKY/WX    TMP DP  RH WIND       PRES   REMARKS
CHATTANOOGA    MOCLDY    66  61  84 S8        29.98R
$$

SKY/WX REPORTED AS FAIR MEANS FEW OR NO CLOUDS BELOW
12 THOUSAND FEET.





USA.gov is the U.S. government's official web portal to all federal, state and local government web resources and services.